St. Joseph, KS

1:48 AM CST on February 21, 2018 (GMT -0600)
Rosecrans Memorial

Weather History for KSTJ - April, 2014

Change the Weather History Date:

Wednesday, April 30, 2014

  Actual Average Record
Temperature  
Mean Temperature 47 °F 59 °F  
Max Temperature 54 °F 70 °F 90 °F (1967)
Min Temperature 39 °F 47 °F 33 °F (1960)
Degree Days  
Heating Degree Days 18 7  
Month to date heating degree days 381 344  
Since 1 July heating degree days 6147 5338  
Cooling Degree Days 0 1  
Month to date cooling degree days 8 19  
Year to date cooling degree days 8 21  
Moisture  
Dew Point 36 °F    
Average Humidity 67    
Maximum Humidity 79    
Minimum Humidity 54    
Precipitation  
Precipitation 0.02 in 0.18 in 2.13 in (1951)
Month to date precipitation 3.98 3.79  
Year to date precipitation 5.21 7.53  
Sea Level Pressure  
Sea Level Pressure 29.93 in    
Wind  
Wind Speed 15 mph (NW)    
Max Wind Speed 35 mph    
Max Gust Speed 43 mph    
Visibility 10 miles    
Events Rain    
T = Trace of Precipitation, MM = Missing Value Source: NWS Daily Summary

Daily Weather History Graph

Daily Weather History Graph

Search for Another Location

Airport or City:

Trip Planner

Search our weather history database for the weather conditions in past years. The results will help you decide how hot, cold, wet, or windy it might be!

Date:

Astronomy

Apr. 30, 2014 Rise Set
Actual Time 6:21 AM CDT 8:12 PM CDT
Civil Twilight 5:52 AM CDT 8:42 PM CDT
Nautical Twilight 5:16 AM CDT 9:17 PM CDT
Astronomical Twilight 4:38 AM CDT 9:55 PM CDT
Moon 7:23 AM CDT (4/30) 9:52 PM CDT (4/30)
Length of Visible Light 14h 49m
Length of Day
13h 51m
New Moon, 2% of the Moon is Illuminated
Apr 30
New Moon
May 6
First Quarter
May 14
Full
May 21
Last Quarter
May 28
New

Hourly Weather History & Observations

Time (CDT) Temp. Windchill Dew Point Humidity Pressure Visibility Wind Dir Wind Speed Gust Speed Precip Events Conditions
12:53 AM 43.0 °F 35.7 °F 36.0 °F 76% 29.88 in 10.0 mi NNW 15.0 mph - N/A   Overcast
1:53 AM 41.0 °F 35.2 °F 35.1 °F 79% 29.89 in 10.0 mi NW 9.2 mph - N/A   Scattered Clouds
2:53 AM 39.9 °F 32.9 °F 34.0 °F 79% 29.89 in 10.0 mi NW 11.5 mph - N/A   Partly Cloudy
3:06 AM 39.9 °F 32.5 °F 34.0 °F 79% 29.89 in 10.0 mi NW 12.7 mph - N/A   Mostly Cloudy
3:53 AM 39.9 °F 33.4 °F 34.0 °F 79% 29.91 in 10.0 mi WNW 10.4 mph - N/A   Overcast
4:53 AM 39.9 °F 32.5 °F 34.0 °F 79% 29.91 in 10.0 mi WNW 12.7 mph - N/A   Mostly Cloudy
6:53 AM 42.1 °F 37.1 °F 36.0 °F 79% 29.91 in 10.0 mi WNW 8.1 mph - N/A   Mostly Cloudy
7:03 AM 42.1 °F 36.6 °F 36.0 °F 79% 29.90 in 10.0 mi WNW 9.2 mph - N/A   Scattered Clouds
7:53 AM 44.1 °F 37.7 °F 37.0 °F 76% 29.91 in 10.0 mi WNW 12.7 mph - N/A   Partly Cloudy
8:53 AM 46.0 °F 39.3 °F 37.9 °F 73% 29.92 in 10.0 mi WNW 16.1 mph 21.9 mph N/A   Overcast
9:35 AM 46.9 °F - 37.9 °F 71% 29.91 in 10.0 mi NW 15.0 mph - N/A   Overcast
9:46 AM 46.9 °F - 37.0 °F 68% 29.91 in 10.0 mi WNW 18.4 mph - N/A   Overcast
10:53 AM 48.0 °F - 36.0 °F 63% 29.93 in 10.0 mi NW 16.1 mph 21.9 mph 0.00 in Rain Light Rain
11:53 AM 46.9 °F - 36.0 °F 66% 29.94 in 10.0 mi NNW 17.3 mph 31.1 mph 0.00 in   Overcast
12:53 PM 48.9 °F - 36.0 °F 61% 29.94 in 10.0 mi NW 23.0 mph 27.6 mph 0.00 in   Overcast
1:53 PM 52.0 °F - 35.1 °F 53% 29.94 in 10.0 mi NNW 23.0 mph 35.7 mph 0.01 in   Scattered Clouds
2:53 PM 46.9 °F - 37.0 °F 68% 29.96 in 9.0 mi WNW 20.7 mph 43.7 mph 0.00 in Rain Light Rain
3:53 PM 46.9 °F - 39.0 °F 74% 29.96 in 6.0 mi NW 17.3 mph 33.4 mph 0.00 in Rain Light Rain
4:53 PM 50.0 °F - 36.0 °F 59% 29.94 in 10.0 mi NNW 20.7 mph 29.9 mph 0.00 in   Mostly Cloudy
5:53 PM 48.9 °F - 37.0 °F 64% 29.96 in 10.0 mi WNW 17.3 mph - 0.00 in   Mostly Cloudy
6:53 PM 46.9 °F - 35.1 °F 63% 29.96 in 10.0 mi NW 19.6 mph 32.2 mph 0.01 in   Overcast
7:53 PM 46.9 °F - 36.0 °F 66% 29.96 in 10.0 mi NW 12.7 mph - N/A   Mostly Cloudy
8:53 PM 46.0 °F 39.6 °F 36.0 °F 68% 29.97 in 10.0 mi NW 15.0 mph - N/A   Overcast
9:53 PM 46.0 °F 40.2 °F 35.1 °F 66% 29.98 in 10.0 mi NW 12.7 mph - N/A   Overcast
10:53 PM 46.0 °F 40.6 °F 35.1 °F 66% 29.98 in 10.0 mi NW 11.5 mph - N/A   Overcast
11:53 PM 45.0 °F 38.9 °F 35.1 °F 68% 29.98 in 10.0 mi NW 12.7 mph - N/A   Overcast